Location: Kalberh�ni
(46.4610°N, 7.2453°E)
Time: 15:06:24
(UTC+00:00)

Lacrosse 4 Rocket - Pass Details

Date: 21 October 2021
Orbit: 537 x 619 km, 68.0° (Epoch: 04 December)

Event Time Altitude Azimuth Distance (km) Brightness Sun altitude
Rises 18:52:35 0° 325° (NW) 2,808 5.6 -24.6°
Reaches altitude 10° 18:54:48 10° 322° (NW) 1,918 4.7 -24.9°
Maximum altitude 18:59:03 61° 243° (WSW) 680 1.8 -25.7°
Enters shadow 18:59:09 61° 236° (SW) 681 1.8 -25.7°
